Weather observations for the past three days for
Palestine, Palestine Municipal Airport
| Date | Time (cdt) | Wind (mph) | Vis. (mi.) | Weather | Sky Cond. | Temperature (ºF) | Relative Humidity | Wind Chill (°F) | Heat Index (°F) | Pressure | Precipitation (in) | ||||||
|---|---|---|---|---|---|---|---|---|---|---|---|---|---|---|---|---|---|
| Air | Dwpt | 6 hour | altimeter (in) | sea level (mb) | 1 hr | 3 hr | 6 hr | ||||||||||
| Max. | Min. | ||||||||||||||||
| 05 | 12:55 | Calm | 10.00 | Fair | CLR | 91.4 | 73.4 | 56% | 100 | 29.95 | 0.0 | ||||||
| 05 | 12:35 | S 3 | 10.00 | Fair | CLR | 91.4 | 73.4 | 56% | 100 | 29.96 | 0.0 | ||||||
| 05 | 12:15 | Calm | 10.00 | Fair | CLR | 89.6 | 73.4 | 59% | 98 | 29.97 | 0.0 | ||||||
| 05 | 11:55 | Calm | 9.00 | Fair | CLR | 89.6 | 75.2 | 63% | 100 | 29.97 | 0.0 | ||||||
| 05 | 11:35 | Vrbl 3 | 9.00 | Fair | CLR | 87.8 | 75.2 | 66% | 98 | 29.98 | 0.0 | ||||||
| 05 | 11:15 | W 5 | 10.00 | Fair | CLR | 87.8 | 77 | 70% | 100 | 29.98 | 0.0 | ||||||
| 05 | 10:55 | Calm | 9.00 | Mostly Cloudy | BKN070 | 86 | 77 | 75% | 97 | 29.98 | 0.0 | ||||||
| 05 | 10:35 | NW 5 | 9.00 | Mostly Cloudy | BKN070 | 84.2 | 77 | 79% | 94 | 29.99 | 0.0 | ||||||
| 05 | 10:15 | Calm | 9.00 | A Few Clouds | FEW070 | 82.4 | 77 | 84% | 91 | 29.98 | 0.0 | ||||||
| 05 | 09:55 | W 5 | 9.00 | Fair | CLR | 80.6 | 77 | 89% | 87 | 29.98 | 0.0 | ||||||
| 05 | 09:35 | Calm | 8.00 | Fair | CLR | 80.6 | 77 | 89% | 87 | 29.97 | 0.0 | ||||||
| 05 | 09:15 | Calm | 8.00 | Fair | CLR | 80.6 | 77 | 89% | 87 | 29.97 | 0.0 | ||||||
| 05 | 08:55 | Calm | 7.00 | Fair | CLR | 78.8 | 77 | 94% | 83 | 29.97 | 0.0 | ||||||
| 05 | 08:35 | Calm | 7.00 | Fair | CLR | 77 | 77 | 100% | 78 | 29.97 | 0.0 | ||||||
| 05 | 08:15 | Calm | 6.00 | Fog/Mist | CLR | 77 | 77 | 100% | 78 | 29.97 | 0.0 | ||||||
| 05 | 07:55 | Calm | 5.00 | Fog/Mist | CLR | 75.2 | 75.2 | 100% | 73 | 29.96 | 0.0 | ||||||
| 05 | 07:35 | Calm | 6.00 | Fog/Mist | CLR | 75.2 | 75.2 | 100% | 73 | 29.96 | 0.0 | ||||||
| 05 | 07:15 | Calm | 6.00 | Fog/Mist | CLR | 75.2 | 75.2 | 100% | 73 | 29.96 | 0.0 | ||||||
| 05 | 06:55 | Calm | 6.00 | Fog/Mist | CLR | 75.2 | 75.2 | 100% | 73 | 29.95 | 0.0 | ||||||
| 05 | 06:35 | Calm | 7.00 | Fair | CLR | 75.2 | 75.2 | 100% | 73 | 29.94 | 0.0 | ||||||
| 05 | 06:15 | Calm | 6.00 | Fog/Mist | CLR | 75.2 | 73.4 | 94% | 74 | 29.94 | 0.0 | ||||||
| 05 | 05:55 | Calm | 7.00 | Fair | CLR | 75.2 | 73.4 | 94% | 74 | 29.94 | 0.0 | ||||||
| 05 | 05:35 | Calm | 8.00 | Fair | CLR | 75.2 | 75.2 | 100% | 73 | 29.94 | 0.0 | ||||||
| 05 | 05:15 | Calm | 7.00 | Fair | CLR | 75.2 | 75.2 | 100% | 73 | 29.94 | 0.0 | ||||||
| 05 | 04:55 | Calm | 8.00 | Fair | CLR | 75.2 | 75.2 | 100% | 73 | 29.93 | 0.0 | ||||||
| 05 | 04:35 | Calm | 9.00 | Fair | CLR | 75.2 | 75.2 | 100% | 73 | 29.93 | 0.0 | ||||||
| 05 | 04:15 | Calm | 7.00 | Fair | CLR | 75.2 | 75.2 | 100% | 73 | 29.93 | 0.0 | ||||||
| 05 | 03:55 | Calm | 8.00 | Fair | CLR | 75.2 | 75.2 | 100% | 73 | 29.93 | 0.0 | ||||||
| 05 | 03:35 | Calm | 6.00 | Fog/Mist | CLR | 75.2 | 75.2 | 100% | 73 | 29.93 | 0.0 | ||||||
| 05 | 03:15 | Calm | 8.00 | Fair | CLR | 77 | 75.2 | 94% | 78 | 29.93 | 0.0 | ||||||
| 05 | 02:55 | Calm | 8.00 | Fair | CLR | 75.2 | 75.2 | 100% | 73 | 29.93 | 0.0 | ||||||
| 05 | 02:35 | Calm | 8.00 | Fair | CLR | 75.2 | 75.2 | 100% | 73 | 29.94 | 0.0 | ||||||
| 05 | 02:15 | Calm | 8.00 | Fair | CLR | 77 | 75.2 | 94% | 78 | 29.94 | 0.0 | ||||||
| 05 | 01:55 | Calm | 8.00 | Fair | CLR | 77 | 75.2 | 94% | 78 | 29.94 | 0.0 | ||||||
| 05 | 01:35 | Calm | 9.00 | Fair | CLR | 77 | 75.2 | 94% | 78 | 29.94 | 0.0 | ||||||
| 05 | 01:15 | Calm | 9.00 | Fair | CLR | 78.8 | 75.2 | 89% | 82 | 29.94 | 0.0 | ||||||
| 05 | 00:55 | Calm | 9.00 | Fair | CLR | 78.8 | 75.2 | 89% | 82 | 29.94 | 0.0 | ||||||
| 05 | 00:35 | S 3 | 9.00 | Fair | CLR | 78.8 | 75.2 | 89% | 82 | 29.93 | 0.0 | ||||||
| 05 | 00:15 | Calm | 10.00 | Fair | CLR | 78.8 | 75.2 | 89% | 82 | 29.93 | 0.0 | ||||||
| 04 | 23:55 | Calm | 10.00 | Fair | CLR | 80.6 | 75.2 | 84% | 86 | 29.93 | 0.0 | ||||||
| 04 | 23:35 | Calm | 9.00 | Fair | CLR | 80.6 | 75.2 | 84% | 86 | 29.93 | 0.0 | ||||||
| 04 | 23:15 | Calm | 10.00 | Fair | CLR | 80.6 | 75.2 | 84% | 86 | 29.93 | 0.0 | ||||||
| 04 | 22:55 | Calm | 9.00 | Fair | CLR | 80.6 | 75.2 | 84% | 86 | 29.94 | 0.0 | ||||||
| 04 | 22:35 | SE 3 | 10.00 | Fair | CLR | 80.6 | 75.2 | 84% | 86 | 29.94 | 0.0 | ||||||
| 04 | 22:15 | SE 3 | 10.00 | Fair | CLR | 82.4 | 75.2 | 79% | 89 | 29.94 | 0.0 | ||||||
| 04 | 21:55 | Calm | 7.00 | Fair | CLR | 82.4 | 75.2 | 79% | 89 | 29.94 | 0.0 | ||||||
| 04 | 21:35 | SE 5 | 10.00 | Fair | CLR | 84.2 | 73.4 | 70% | 91 | 29.93 | 0.0 | ||||||
| 04 | 21:15 | S 3 | 10.00 | Fair | CLR | 84.2 | 73.4 | 70% | 91 | 29.92 | 0.0 | ||||||
| 04 | 20:55 | Calm | 10.00 | Fair | CLR | 84.2 | 75.2 | 74% | 92 | 29.92 | 0.0 | ||||||
| 04 | 20:35 | Calm | 10.00 | Fair | CLR | 86 | 73.4 | 66% | 93 | 29.91 | 0.0 | ||||||
| 04 | 20:15 | S 5 | 10.00 | Fair | CLR | 86 | 73.4 | 66% | 93 | 29.9 | 0.0 | ||||||
| 04 | 19:55 | S 6 | 7.00 | Light Rain | SCT050 | 87.8 | 73.4 | 62% | 96 | 29.89 | 0.0 | ||||||
| 04 | 19:35 | S 6 | 10.00 | Mostly Cloudy | BKN050 BKN060 | 89.6 | 73.4 | 59% | 98 | 29.89 | 0.0 | ||||||
| 04 | 19:15 | S 3 | 10.00 | A Few Clouds | FEW055 | 91.4 | 73.4 | 56% | 100 | 29.89 | 0.0 | ||||||
| 04 | 18:55 | S 5 | 10.00 | Fair | CLR | 91.4 | 71.6 | 52% | 99 | 29.89 | 0.0 | ||||||
| 04 | 18:35 | S 5 | 10.00 | Fair | CLR | 93.2 | 71.6 | 50% | 101 | 29.88 | 0.0 | ||||||
| 04 | 18:15 | S 5 | 10.00 | Fair | CLR | 93.2 | 71.6 | 50% | 101 | 29.88 | 0.0 | ||||||
| 04 | 17:55 | SE 6 | 10.00 | Fair | CLR | 95 | 69.8 | 44% | 101 | 29.88 | 0.0 | ||||||
| 04 | 17:35 | E 8 | 10.00 | Fair | CLR | 95 | 69.8 | 44% | 101 | 29.88 | 0.0 | ||||||
| 04 | 17:15 | Calm | 10.00 | Fair | CLR | 91.4 | 71.6 | 52% | 99 | 29.89 | 0.0 | ||||||
| 04 | 16:55 | Calm | 10.00 | Fair | CLR | 95 | 69.8 | 44% | 101 | 29.89 | 0.0 | ||||||
| 04 | 16:35 | Vrbl 5 | 10.00 | Fair | CLR | 95 | 68 | 41% | 100 | 29.89 | 0.0 | ||||||
| 04 | 16:15 | Vrbl 6 | 10.00 | A Few Clouds | FEW060 | 95 | 69.8 | 44% | 101 | 29.9 | 0.0 | ||||||
| 04 | 15:55 | E 8 | 10.00 | Partly Cloudy | FEW060 SCT070 | 95 | 69.8 | 44% | 101 | 29.91 | 0.0 | ||||||
| 04 | 15:35 | Calm | 9.00 | Partly Cloudy | SCT060 | 93.2 | 69.8 | 47% | 99 | 29.91 | 0.0 | ||||||
| 04 | 15:15 | S 5 | 10.00 | Fair | CLR | 95 | 69.8 | 44% | 101 | 29.92 | 0.0 | ||||||
| 04 | 14:55 | Vrbl 5 G 12 | 10.00 | Fair | CLR | 93.2 | 69.8 | 47% | 99 | 29.93 | 0.0 | ||||||
| 04 | 14:35 | Vrbl 3 G 12 | 10.00 | A Few Clouds | FEW050 FEW060 | 93.2 | 69.8 | 47% | 99 | 29.94 | 0.0 | ||||||
| 04 | 14:15 | Vrbl 5 | 10.00 | Partly Cloudy | SCT050 | 93.2 | 69.8 | 47% | 99 | 29.95 | 0.0 | ||||||
| 04 | 13:55 | Vrbl 6 | 10.00 | Partly Cloudy | SCT050 | 93.2 | 71.6 | 50% | 101 | 29.95 | 0.0 | ||||||
| 04 | 13:35 | Vrbl 5 G 12 | 10.00 | A Few Clouds | FEW048 | 91.4 | 71.6 | 52% | 99 | 29.96 | 0.0 | ||||||
| 04 | 13:15 | Vrbl 6 | 10.00 | Fair | CLR | 91.4 | 71.6 | 52% | 99 | 29.97 | 0.0 | ||||||
| 04 | 12:55 | Vrbl 3 G 12 | 10.00 | Fair | CLR | 91.4 | 71.6 | 52% | 99 | 29.97 | 0.0 | ||||||
| 04 | 12:35 | SE 6 | 10.00 | Fair | CLR | 91.4 | 73.4 | 56% | 100 | 29.98 | 0.0 | ||||||
| 04 | 12:15 | Calm | 10.00 | A Few Clouds | FEW038 | 89.6 | 75.2 | 63% | 100 | 29.99 | 0.0 | ||||||
| 04 | 11:55 | Calm | 10.00 | Fair | CLR | 89.6 | 73.4 | 59% | 98 | 29.99 | 0.0 | ||||||
| 04 | 11:35 | Calm | 8.00 | A Few Clouds | FEW026 FEW034 | 86 | 77 | 75% | 97 | 30 | 0.0 | ||||||
| 04 | 11:15 | Calm | 9.00 | Partly Cloudy | FEW022 FEW028 SCT032 | 87.8 | 77 | 70% | 100 | 30 | 0.0 | ||||||
| 04 | 10:55 | S 5 | 9.00 | Mostly Cloudy | BKN021 BKN027 BKN032 | 86 | 77 | 75% | 97 | 30 | 0.0 | 0.02 | |||||
| 04 | 10:35 | SE 5 | 9.00 | Mostly Cloudy | BKN018 BKN025 BKN033 | 86 | 78.8 | 79% | 99 | 30 | 0.0 | ||||||
| 04 | 10:15 | Calm | 9.00 | Partly Cloudy | FEW015 SCT021 | 84.2 | 78.8 | 84% | 96 | 29.99 | 0.0 | ||||||
| 04 | 09:55 | Vrbl 3 | 8.00 | Fair | CLR | 84.2 | 78.8 | 84% | 96 | 29.99 | 0.0 | ||||||
| 04 | 09:35 | SE 5 | 7.00 | Fair | CLR | 80.6 | 78.8 | 94% | 88 | 29.99 | 0.0 | ||||||
| 04 | 09:15 | E 7 | 7.00 | Fair | CLR | 80.6 | 78.8 | 94% | 88 | 30 | 0.0 | ||||||
| 04 | 08:55 | E 6 | 6.00 | Fog/Mist | CLR | 78.8 | 77 | 94% | 83 | 29.99 | 0.0 | ||||||
| 04 | 08:35 | SE 6 | 6.00 | Fog/Mist | CLR | 78.8 | 77 | 94% | 83 | 29.99 | 0.0 | ||||||
| 04 | 08:15 | E 5 | 6.00 | Fog/Mist | CLR | 77 | 77 | 100% | 78 | 29.98 | 0.0 | ||||||
| 04 | 07:55 | Calm | 5.00 | Fog/Mist | CLR | 77 | 77 | 100% | 78 | 29.98 | 0.0 | 0.02 | |||||
| 04 | 07:35 | Calm | 5.00 | Fog/Mist | CLR | 75.2 | 75.2 | 100% | 73 | 29.97 | 0.0 | ||||||
| 04 | 07:15 | Calm | 5.00 | Fog/Mist | CLR | 75.2 | 75.2 | 100% | 73 | 29.96 | 0.0 | ||||||
| 04 | 06:55 | Calm | 6.00 | Fog/Mist | CLR | 75.2 | 75.2 | 100% | 73 | 29.96 | 0.0 | ||||||
| 04 | 06:35 | SE 3 | 7.00 | Fair | CLR | 75.2 | 75.2 | 100% | 73 | 29.95 | 0.0 | ||||||
| 04 | 06:15 | E 5 | 7.00 | Fair | CLR | 75.2 | 75.2 | 100% | 73 | 29.95 | 0.0 | ||||||
| 04 | 05:55 | Calm | 7.00 | Fair | CLR | 75.2 | 75.2 | 100% | 73 | 29.95 | 0.0 | ||||||
| 04 | 05:35 | Calm | 8.00 | Fair | CLR | 75.2 | 75.2 | 100% | 73 | 29.95 | 0.0 | ||||||
| 04 | 05:15 | SE 3 | 8.00 | Fair | CLR | 75.2 | 75.2 | 100% | 73 | 29.94 | 0.0 | ||||||
| 04 | 04:55 | SE 5 | 7.00 | Partly Cloudy | SCT015 | 75.2 | 75.2 | 100% | 73 | 29.94 | 0.0 | 0.02 | |||||
| 04 | 04:35 | Calm | 7.00 | Partly Cloudy | SCT014 | 75.2 | 75.2 | 100% | 73 | 29.94 | 0.0 | ||||||
| 04 | 04:15 | Calm | 8.00 | Fair | CLR | 75.2 | 75.2 | 100% | 73 | 29.94 | 0.0 | ||||||
| 04 | 03:55 | Calm | 7.00 | Fair | CLR | 75.2 | 75.2 | 100% | 73 | 29.94 | 0.0 | ||||||
| 04 | 03:35 | Calm | 8.00 | Fair | CLR | 77 | 75.2 | 94% | 78 | 29.94 | 0.0 | ||||||
| 04 | 03:15 | Calm | 8.00 | Fair | CLR | 77 | 75.2 | 94% | 78 | 29.94 | 0.0 | ||||||
| 04 | 02:55 | SE 3 | 8.00 | Fair | CLR | 77 | 75.2 | 94% | 78 | 29.93 | 0.0 | ||||||
| 04 | 02:35 | Calm | 8.00 | Fair | CLR | 77 | 75.2 | 94% | 78 | 29.93 | 0.0 | ||||||
| 04 | 02:15 | S 5 | 8.00 | Fair | CLR | 77 | 75.2 | 94% | 78 | 29.93 | 0.0 | ||||||
| 04 | 01:55 | SE 3 | 9.00 | Fair | CLR | 77 | 75.2 | 94% | 78 | 29.94 | 0.0 | 0.02 | |||||
| 04 | 01:35 | SE 5 | 9.00 | Fair | CLR | 77 | 75.2 | 94% | 78 | 29.94 | 0.0 | ||||||
| 04 | 01:15 | S 3 | 9.00 | Partly Cloudy | SCT120 | 77 | 75.2 | 94% | 78 | 29.93 | 0.0 | ||||||
| 04 | 00:55 | SE 6 | 9.00 | A Few Clouds | FEW120 | 77 | 75.2 | 94% | 78 | 29.94 | 0.0 | ||||||
| 04 | 00:35 | S 3 | 9.00 | Fair | CLR | 77 | 75.2 | 94% | 78 | 29.94 | 0.0 | ||||||
| 04 | 00:15 | SE 3 | 8.00 | Fair | CLR | 77 | 75.2 | 94% | 78 | 29.93 | 0.0 | ||||||
| 03 | 23:55 | SE 5 | 8.00 | Fair | CLR | 77 | 75.2 | 94% | 78 | 29.94 | 0.0 | 0.01 | |||||
| 03 | 23:35 | Calm | 6.00 | Fog/Mist | CLR | 77 | 75.2 | 94% | 78 | 29.94 | 0.0 | ||||||
| 03 | 23:15 | Calm | 8.00 | Fair | CLR | 77 | 75.2 | 94% | 78 | 29.94 | 0.0 | ||||||
| 03 | 22:55 | Calm | 9.00 | Fair | CLR | 77 | 75.2 | 94% | 78 | 29.94 | 0.0 | ||||||
| 03 | 22:35 | Calm | 9.00 | Fair | CLR | 77 | 73.4 | 89% | 78 | 29.94 | 0.0 | ||||||
| 03 | 22:15 | SE 5 | 9.00 | Fair | CLR | 77 | 73.4 | 89% | 78 | 29.94 | 0.0 | ||||||
| 03 | 21:55 | SE 5 | 10.00 | Fair | CLR | 77 | 73.4 | 89% | 78 | 29.94 | 0.0 | 0.02 | |||||
| 03 | 21:35 | Calm | 8.00 | A Few Clouds | FEW120 | 77 | 73.4 | 89% | 78 | 29.93 | 0.0 | ||||||
| 03 | 21:15 | E 3 | 9.00 | Fair | CLR | 75.2 | 73.4 | 94% | 74 | 29.92 | 0.0 | ||||||
| 03 | 20:55 | Calm | 9.00 | Fair | CLR | 77 | 73.4 | 89% | 78 | 29.92 | 0.0 | ||||||
| 03 | 20:35 | Calm | 10.00 | Fair | CLR | 77 | 73.4 | 89% | 78 | 29.91 | 0.0 | ||||||
| 03 | 20:15 | Calm | 10.00 | Fair | CLR | 78.8 | 71.6 | 79% | 82 | 29.9 | 0.0 | ||||||
| 03 | 19:55 | Calm | 9.00 | Fair | CLR | 77 | 73.4 | 89% | 78 | 29.9 | 0.0 | 0.02 | |||||
| 03 | 19:35 | Calm | 9.00 | Fair | CLR | 80.6 | 69.8 | 70% | 84 | 29.9 | 0.0 | ||||||
| 03 | 19:15 | Calm | 10.00 | Fair | CLR | 82.4 | 69.8 | 66% | 86 | 29.9 | 0.0 | ||||||
| 03 | 18:55 | Calm | 9.00 | Fair | CLR | 82.4 | 69.8 | 66% | 86 | 29.9 | 0.0 | 0.01 | |||||
| 03 | 18:35 | S 6 | 10.00 | Fair | CLR | 82.4 | 69.8 | 66% | 86 | 29.9 | 0.0 | ||||||
| 03 | 18:15 | SE 6 | 10.00 | Fair | CLR | 84.2 | 71.6 | 66% | 90 | 29.9 | 0.0 | ||||||
| 03 | 17:55 | SE 9 | 10.00 | Fair | CLR | 86 | 71.6 | 62% | 92 | 29.9 | 0.0 | 0.01 | |||||
| 03 | 17:35 | S 6 | 10.00 | Fair | CLR | 86 | 71.6 | 62% | 92 | 29.9 | 0.0 | ||||||
| 03 | 17:15 | SE 8 | 10.00 | Fair | CLR | 87.8 | 71.6 | 59% | 94 | 29.9 | 0.0 | ||||||
| 03 | 16:55 | S 9 | 10.00 | Fair | CLR | 87.8 | 71.6 | 59% | 94 | 29.91 | 0.0 | 0.02 | |||||
| 03 | 16:35 | S 12 | 10.00 | Fair | CLR | 86 | 71.6 | 62% | 92 | 29.91 | 0.0 | ||||||
| 03 | 16:15 | S 8 G 14 | 10.00 | Fair | CLR | 84.2 | 71.6 | 66% | 90 | 29.91 | 0.0 | ||||||
| 03 | 15:55 | SE 13 | 10.00 | Fair | CLR | 86 | 71.6 | 62% | 92 | 29.91 | 0.0 | 0.02 | |||||
| 03 | 15:35 | SE 8 | 10.00 | Fair | CLR | 86 | 73.4 | 66% | 93 | 29.92 | 0.0 | ||||||
| 03 | 15:15 | SE 8 | 10.00 | Fair | CLR | 86 | 73.4 | 66% | 93 | 29.93 | 0.0 | ||||||
| 03 | 14:55 | S 8 | 10.00 | Fair | CLR | 84.2 | 73.4 | 70% | 91 | 29.94 | 0.0 | ||||||
| 03 | 14:35 | S 12 | 9.00 | Fair | CLR | 86 | 75.2 | 70% | 95 | 29.94 | 0.0 | ||||||
| 03 | 14:15 | S 13 | 9.00 | Fair | CLR | 84.2 | 73.4 | 70% | 91 | 29.95 | 0.0 | ||||||
| 03 | 13:55 | S 9 | 10.00 | Fair | CLR | 82.4 | 73.4 | 74% | 88 | 29.96 | 0.0 | 0.02 | |||||
| 03 | 13:35 | S 8 | 9.00 | Fair | CLR | 84.2 | 73.4 | 70% | 91 | 29.97 | 0.0 | ||||||
| 03 | 13:15 | SW 9 | 9.00 | Fair | CLR | 82.4 | 73.4 | 74% | 88 | 29.98 | 0.0 | ||||||
| 03 | 12:55 | S 9 | 9.00 | Fair | CLR | 80.6 | 73.4 | 79% | 85 | 29.99 | 0.0 | 0.01 | |||||
| 03 | 12:35 | S 13 | 9.00 | Fair | CLR | 80.6 | 73.4 | 79% | 85 | 30 | 0.0 | ||||||
| 03 | 12:15 | SW 10 | 9.00 | Partly Cloudy | SCT012 | 78.8 | 73.4 | 84% | 82 | 30.01 | 0.0 | ||||||
| 03 | 11:55 | S 10 | 9.00 | Mostly Cloudy | BKN011 | 78.8 | 75.2 | 89% | 82 | 30.01 | 0.0 | 0.01 | |||||
| 03 | 11:35 | S 9 | 9.00 | Partly Cloudy | SCT009 SCT012 | 77 | 75.2 | 94% | 78 | 30.01 | 0.0 | ||||||
| 03 | 11:15 | S 8 G 17 | 7.00 | Unknown Precip | FEW007 SCT013 SCT080 | 75.2 | 75.2 | 100% | 73 | 30.01 | 0.0 | ||||||
| 03 | 10:55 | S 10 | 5.00 | Light Rain Fog/Mist | SCT005 SCT080 | 75.2 | 75.2 | 100% | 73 | 30 | 0.0 | 0.02 | |||||
| 03 | 10:35 | S 9 | 5.00 | Light Rain Fog/Mist | BKN004 | 73.4 | 73.4 | 100% | 29.99 | 0.0 | |||||||
| 03 | 10:15 | S 10 | 4.00 | Thunderstorm in Vicinity Rain Fog/Mist | FEW004 FEW090 | 73.4 | 73.4 | 100% | 29.99 | 0.0 | |||||||
| 03 | 09:55 | S 6 G 12 | 5.00 | Thunderstorm in Vicinity Rain Fog/Mist | FEW005 FEW060 SCT090 | 73.4 | 73.4 | 100% | 30 | 0.0 | 0.04 | ||||||
| 03 | 09:35 | S 9 | 7.00 | Light Rain | FEW006 SCT060 SCT090 | 73.4 | 73.4 | 100% | 30 | 0.0 | |||||||
| 03 | 09:15 | S 8 | 7.00 | Thunderstorm in Vicinity Rain | SCT007 SCT090 BKN110 | 73.4 | 73.4 | 100% | 30 | 0.0 | |||||||
| 03 | 08:55 | S 8 | 7.00 | Thunderstorm in Vicinity Rain | SCT007 SCT040 BKN110 | 73.4 | 73.4 | 100% | 30 | 0.0 | 0.08 | ||||||
| 03 | 08:35 | S 8 G 14 | 3.00 | Light Rain Fog/Mist | FEW039 FEW050 SCT120 | 73.4 | 73.4 | 100% | 30 | 0.0 | |||||||
| 03 | 08:15 | S 9 | 3.00 | Rain Fog/Mist | FEW005 SCT050 BKN075 | 73.4 | 73.4 | 100% | 30 | 0.0 | |||||||
| 03 | 07:55 | S 8 | 2.50 | Thunderstorm in Vicinity Rain Fog/Mist | SCT005 SCT024 BKN045 | 73.4 | 73.4 | 100% | 30 | 0.0 | 0.06 | ||||||
| 03 | 07:35 | SE 9 G 17 | 2.50 | Thunderstorm in Vicinity Rain Fog/Mist | FEW007 SCT026 BKN045 | 73.4 | 73.4 | 100% | 29.98 | 0.0 | |||||||
| 03 | 07:15 | S 12 G 17 | 2.00 | Light Rain Fog/Mist | BKN023 BKN032 OVC070 | 73.4 | 73.4 | 100% | 29.98 | 0.0 | |||||||
| 03 | 06:55 | SE 12 | 2.50 | Light Rain Fog/Mist | BKN023 BKN028 OVC035 | 73.4 | 73.4 | 100% | 29.98 | 0.0 | 0.04 | ||||||
| 03 | 06:35 | SE 12 G 20 | 1.25 | Light Rain Fog/Mist | FEW005 BKN023 OVC028 | 75.2 | 75.2 | 100% | 73 | 29.97 | 0.0 | ||||||
| 03 | 06:15 | SE 8 G 22 | 1.00 | Light Rain Fog/Mist | SCT008 BKN037 OVC055 | 75.2 | 75.2 | 100% | 73 | 29.97 | 0.0 | ||||||
| 03 | 05:55 | SE 10 | 5.00 | Light Rain Fog/Mist | FEW006 BKN017 OVC055 | 75.2 | 75.2 | 100% | 73 | 29.97 | 0.0 | 0.04 | |||||
| 03 | 05:35 | SE 7 | 4.00 | Light Rain Fog/Mist | SCT007 SCT012 OVC017 | 75.2 | 75.2 | 100% | 73 | 29.96 | 0.0 | ||||||
| 03 | 05:15 | SE 9 | 5.00 | Light Rain Fog/Mist | BKN018 BKN023 OVC028 | 77 | 75.2 | 94% | 78 | 29.96 | 0.0 | ||||||
| 03 | 04:55 | E 7 | 2.00 | Light Rain Fog/Mist | SCT006 BKN019 OVC025 | 77 | 77 | 100% | 78 | 29.95 | 0.0 | 0.02 | |||||
| 03 | 04:35 | SE 7 | 6.00 | Light Rain Fog/Mist | BKN009 BKN024 OVC060 | 77 | 77 | 100% | 78 | 29.95 | 0.0 | ||||||
| 03 | 04:15 | SE 8 | 9.00 | Overcast | SCT013 BKN060 OVC070 | 77 | 77 | 100% | 78 | 29.95 | 0.0 | ||||||
| 03 | 03:55 | SE 10 | 9.00 | Overcast | SCT013 BKN034 OVC060 | 77 | 75.2 | 94% | 78 | 29.94 | 0.0 | ||||||
| 03 | 03:35 | SE 9 | 5.00 | Light Rain Fog/Mist | FEW003 SCT045 BKN050 | 75.2 | 75.2 | 100% | 73 | 29.94 | 0.0 | ||||||
| 03 | 03:15 | SE 6 | 8.00 | Overcast | FEW021 FEW049 OVC060 | 75.2 | 75.2 | 100% | 73 | 29.95 | 0.0 | ||||||
| 03 | 02:55 | SE 6 | 8.00 | Mostly Cloudy | FEW020 SCT049 BKN065 | 75.2 | 75.2 | 100% | 73 | 29.94 | 0.0 | ||||||
| 03 | 02:35 | SE 8 | 8.00 | Overcast | SCT022 BKN055 OVC110 | 75.2 | 75.2 | 100% | 73 | 29.94 | 0.0 | ||||||
| 03 | 02:15 | SE 6 | 9.00 | Overcast | FEW027 FEW055 OVC110 | 75.2 | 75.2 | 100% | 73 | 29.94 | 0.0 | ||||||
| 03 | 01:55 | SE 6 | 9.00 | Mostly Cloudy | FEW011 SCT016 BKN055 | 75.2 | 75.2 | 100% | 73 | 29.95 | 0.0 | ||||||
| 03 | 01:35 | SE 6 | 9.00 | Overcast | OVC012 | 75.2 | 75.2 | 100% | 73 | 29.95 | 0.0 | ||||||
| 03 | 01:15 | SE 5 | 9.00 | Overcast | OVC014 | 75.2 | 75.2 | 100% | 73 | 29.95 | 0.0 | ||||||
| 03 | 00:55 | SE 5 | 9.00 | Overcast | OVC014 | 75.2 | 75.2 | 100% | 73 | 29.93 | 0.0 | 0.02 | |||||
| 03 | 00:35 | SE 6 | 9.00 | Overcast | BKN011 OVC016 | 75.2 | 75.2 | 100% | 73 | 29.94 | 0.0 | ||||||
| 03 | 00:15 | SE 5 | 9.00 | Overcast | OVC011 | 75.2 | 75.2 | 100% | 73 | 29.94 | 0.0 | ||||||
| 02 | 23:55 | SE 5 | 10.00 | Overcast | OVC012 | 75.2 | 75.2 | 100% | 73 | 29.94 | 0.0 | 0.04 | |||||
| 02 | 23:35 | SE 3 | 10.00 | Overcast | OVC012 | 75.2 | 75.2 | 100% | 73 | 29.93 | 0.0 | ||||||
| 02 | 23:15 | SE 5 | 10.00 | Overcast | OVC013 | 75.2 | 75.2 | 100% | 73 | 29.93 | 0.0 | ||||||
| 02 | 22:55 | SE 5 G 12 | 9.00 | Overcast | BKN015 BKN026 OVC044 | 75.2 | 73.4 | 94% | 74 | 29.94 | 0.0 | 0.04 | |||||
| 02 | 22:35 | S 10 | 9.00 | Overcast | SCT018 BKN034 OVC075 | 77 | 73.4 | 89% | 78 | 29.94 | 0.0 | ||||||
| 02 | 22:15 | SE 8 | 10.00 | Overcast | SCT015 BKN032 OVC060 | 77 | 75.2 | 94% | 78 | 29.93 | 0.0 | ||||||
| 02 | 21:55 | S 9 | 10.00 | Mostly Cloudy | FEW015 SCT030 BKN037 | 78.8 | 75.2 | 89% | 82 | 29.93 | 0.0 | ||||||
| 02 | 21:35 | S 10 G 17 | 10.00 | Overcast | BKN041 OVC046 | 78.8 | 75.2 | 89% | 82 | 29.92 | 0.0 | ||||||
| 02 | 21:15 | S 9 | 10.00 | Overcast | FEW018 SCT024 OVC043 | 77 | 75.2 | 94% | 78 | 29.91 | 0.0 | ||||||
| 02 | 20:55 | SW 6 | 10.00 | Overcast | OVC018 | 77 | 73.4 | 89% | 78 | 29.91 | 0.0 | ||||||
| 02 | 20:35 | S 7 | 10.00 | Overcast | BKN019 OVC027 | 77 | 73.4 | 89% | 78 | 29.9 | 0.0 | ||||||
| 02 | 20:15 | SW 6 | 10.00 | Overcast | FEW021 OVC028 | 77 | 73.4 | 89% | 78 | 29.89 | 0.0 | ||||||
| 02 | 19:55 | W 7 | 6.00 | Fog/Mist | OVC021 | 77 | 73.4 | 89% | 78 | 29.88 | 0.0 | ||||||
| 02 | 19:35 | W 6 | 7.00 | Overcast | OVC019 | 77 | 73.4 | 89% | 78 | 29.88 | 0.0 | ||||||
| 02 | 19:15 | NW 7 | 9.00 | Overcast | OVC016 | 78.8 | 73.4 | 84% | 82 | 29.87 | 0.0 | ||||||
| 02 | 18:55 | N 7 | 10.00 | Overcast | OVC015 | 77 | 73.4 | 89% | 78 | 29.88 | 0.0 | ||||||
| 02 | 18:35 | NW 7 G 14 | 8.00 | Overcast | OVC013 | 77 | 75.2 | 94% | 78 | 29.88 | 0.0 | ||||||
| 02 | 18:15 | Vrbl 5 G 13 | 10.00 | Overcast | OVC013 | 78.8 | 75.2 | 89% | 82 | 29.88 | 0.0 | ||||||
| 02 | 17:55 | N 9 G 18 | 10.00 | Overcast | OVC013 | 78.8 | 75.2 | 89% | 82 | 29.87 | 0.0 | ||||||
| 02 | 17:35 | NE 8 G 20 | 6.00 | Fog/Mist | BKN013 BKN025 BKN037 | 78.8 | 75.2 | 89% | 82 | 29.88 | 0.0 | ||||||
| 02 | 17:15 | NE 12 G 18 | 5.00 | Unknown Precip Fog/Mist | SCT013 BKN049 BKN060 | 78.8 | 75.2 | 89% | 82 | 29.88 | 0.0 | ||||||
| 02 | 16:55 | NE 13 G 18 | 6.00 | Fog/Mist | SCT012 SCT034 BKN042 | 78.8 | 75.2 | 89% | 82 | 29.88 | 0.0 | ||||||
| 02 | 16:35 | NE 12 | 3.00 | Light Rain Fog/Mist | SCT036 SCT042 BKN055 | 77 | 75.2 | 94% | 78 | 29.89 | 0.0 | ||||||
| 02 | 16:15 | NE 13 G 20 | 6.00 | Unknown Precip Haze | FEW016 FEW043 OVC055 | 80.6 | 73.4 | 79% | 85 | 29.9 | 0.0 | ||||||
| 02 | 15:55 | NE 15 G 22 | 10.00 | Mostly Cloudy | FEW034 SCT046 BKN050 | 80.6 | 73.4 | 79% | 85 | 29.9 | 0.0 | ||||||
| 02 | 15:35 | NE 13 G 21 | 10.00 | Mostly Cloudy | FEW026 SCT039 BKN060 | 84.2 | 73.4 | 70% | 91 | 29.9 | 0.0 | ||||||
| 02 | 15:15 | NE 15 G 25 | 10.00 | Mostly Cloudy | SCT031 BKN039 BKN075 | 86 | 71.6 | 62% | 92 | 29.9 | 0.0 | ||||||
| Date | Time (cdt) | Wind (mph) | Vis. (mi.) | Weather | Sky Cond. | Air | Dwpt | Max. | Min. | Relative Humidity | Wind Chill (°F) | Heat Index (°F) | altimeter (in) | sea level (mb) | 1 hr | 3 hr | 6 hr |
| 6 hour | |||||||||||||||||
| Temperature (ºF) | Pressure | Precipitation (in) | |||||||||||||||